Flag for U.S.A. Weather past 2 weeks in Monterey, California, U.S.A.

Now
51 °F

Clear.


Feels Like: 50 °F
Forecast: 52 / 62 °F
Wind: 5 mph from South

Location: Monterey Peninsula Airport


UV Index: 5 (Moderate)

Visibility: 10 mi


Pressure: 30.03 "Hg

Humidity: 80%

Dew point: 45 °F

Location of MontereyLocation

Historic Weather in Monterey

°F

Monterey temperature yesterday

Maximum temperature yesterday: 59 °F (at 12:54 PM)
Minimum temperature yesterday: 53 °F (at 2:54 AM)
Average temperature yesterday: 55 °F

Past Weeks' High & Low Weather Summary

 TemperatureHumidityPressure
High78 °F (Apr 8, 1:54 PM)96% (Apr 8, 6:54 AM)30.27 "Hg (Apr 8, 6:54 AM)
Low45 °F (Apr 10, 5:54 AM)30% (Apr 8, 1:54 PM)29.86 "Hg (Apr 17, 2:54 AM)
Average56 °F74%30.06 "Hg
* Reported Apr 4 1:54 AM — Apr 19 1:54 AM, Monterey, Weather by CustomWeather, © 2014

Note: Actual official high and low records may vary slightly from our data, if they occured in-between our weather recording intervals... More about our weather records

Advertising

Historic Weather Conditions — Data for Previous 24 hours

 ConditionsComfort  
Time TempWeatherWind HumidityBarometerVisibility
1:54 AM
Apr 19
52 °FOvercast.5 mph80%30.03 "Hg10 mi
12:54 AM53 °FOvercast.6 mph80%30.03 "Hg10 mi
11:54 PM
Apr 18
53 °FLow clouds.6 mph83%30.01 "Hg10 mi
10:54 PM53 °FPassing clouds.9 mph83%30.02 "Hg10 mi
9:54 PM53 °FPassing clouds.8 mph80%30.02 "Hg10 mi
8:54 PM54 °FOvercast.3 mph77%30.01 "Hg10 mi
7:54 PM54 °FOvercast.6 mph77%30.01 "Hg10 mi
6:54 PM55 °FOvercast.8 mph74%29.99 "Hg10 mi
5:54 PM56 °FOvercast.7 mph72%29.99 "Hg10 mi
4:54 PM55 °FOvercast.10 mph74%29.99 "Hg10 mi
4:01 PM55 °FOvercast.12 mph77%29.96 "Hg10 mi
2:54 PM56 °FPartly sunny.13 mph72%30.00 "Hg10 mi
1:54 PM57 °FPartly sunny.12 mph72%30.00 "Hg10 mi
12:54 PM59 °FPartly sunny.10 mph67%29.99 "Hg10 mi
11:54 AM58 °FOvercast.8 mph70%30.00 "Hg10 mi
10:54 AM58 °FOvercast.9 mph70%29.99 "Hg10 mi
9:54 AM55 °FOvercast.5 mph77%29.99 "Hg10 mi
8:54 AM54 °FOvercast.7 mph77%29.99 "Hg10 mi
7:54 AM54 °FOvercast.7 mph77%29.99 "Hg10 mi
6:54 AM53 °FOvercast.9 mph80%29.97 "Hg10 mi
5:54 AM53 °FOvercast.8 mph83%29.96 "Hg10 mi
4:54 AM54 °FOvercast.9 mph80%29.95 "Hg10 mi
3:54 AM53 °FOvercast.8 mph83%29.95 "Hg10 mi
Weather by CustomWeather, © 2014

See weather overview